Location: Omaha
(41.2590°N, 95.9380°W)
Time: 18:20:45
(UTC-06:00)

Envisat - Pass Details

Date: 09 October 2017
Orbit: 764 x 766 km, 98.2° (Epoch: 09 December)

Event Time Altitude Azimuth Distance (km) Brightness Sun altitude
Exits shadow 22:24:51 19° 281° (W) 1,773 5.4 -39.5°
Drops below altitude 10° 22:27:39 10° 314° (NW) 2,311 6.1 -39.9°
Sets 22:30:36 0° 331° (NNW) 3,243 6.9 -40.4°
